Погода в Кастели-Пладже-де-Аро

Испания     41°48′51″N   3°01′52″E
темп.,
°C
ветер,
м/с
пор.,
м/с
влажн.,
%
обл.,
%
осадки,
мм/ч
давл.,
гПа
погр.,
м
17 апреля, сб
сб1723:00+8с4954100 0.0 1019488
02:00+8сз4862100 0.0 1019548
05:00+6сз487710 0.0 1017324
08:00+6зсз237516 0.0 1018109
11:00+10ю3360100 0.0 1018837
14:00+9ссв3464100 0.9 1018823
17:00+11юз2546100 0.1 10161237
20:00+9юз566799 0.3 1017326
18 апреля, вс
вс1823:00+7з348271 0.0 1018178
02:00+6сз23845 0.0 101878
05:00+6сз22835 0.0 101758
08:00+6ссз22780 0.0 101888
11:00+13юз12460 0.0 1019742
14:00+13ююз655525 0.0 10191118
17:00+13ююв335812 0.0 1019873
20:00+12ююз346692 0.0 1019303
19 апреля, пн
пн1923:00+11юз237362 0.0 1020200
02:00+8зсз2283100 0.0 101949
05:00+8з227938 0.0 101863
08:00+8сз227411 0.0 101768
11:00+14ю225653 0.0 1017636
14:00+14ю436461 0.0 1016755
17:00+14ююв336959 0.0 1014697
20:00+13ююв238494 0.0 1014118
20 апреля, вт
вт2023:00+12юз119093 0.0 101422
02:00+11ссз1190100 0.2 101333
05:00+11ссв1191100 0.4 101249
08:00+11с2388100 0.7 1012103
11:00+12с2388100 0.1 1013223
14:00+12с3478100 0.1 1012356
17:00+11с3587100 0.4 1012348
20:00+10с5891100 1.3 1013368
21 апреля, ср
ср2123:00+10с349189 0.9 1014158
02:00+9ссз3390100 0.9 1014100
05:00+10ссз2389100 0.3 101496
08:00+10зсз2287100 0.4 101598
11:00+14зсз126420 0.0 1015739
14:00+14ююв326968 1.1 1016672
17:00+14ю117067 0.6 1015430
20:00+13зюз34745 0.6 1016173